Springfield, MO

7:01 AM CST on December 15, 2017 (GMT -0600)
Springfield-Branson Regional

Weather History for KSGF - April, 2013

Change the Weather History Date:

Saturday, April 27, 2013

  Actual Average Record
Temperature  
Mean Temperature 51 °F 59 °F  
Max Temperature 54 °F 71 °F 91 °F (1989)
Min Temperature 48 °F 48 °F 33 °F (1967)
Degree Days  
Heating Degree Days 14 7  
Month to date heating degree days 332 282  
Since 1 July heating degree days 4347 4456  
Cooling Degree Days 0 1  
Month to date cooling degree days 9 20  
Year to date cooling degree days 9 23  
Moisture  
Dew Point 48 °F    
Average Humidity 93    
Maximum Humidity 96    
Minimum Humidity 89    
Precipitation  
Precipitation 0.18 in 0.17 in 1.10 in (1998)
Month to date precipitation 5.64 3.81  
Year to date precipitation 15.75 12.42  
Snow  
Snow 0.00 in - - ()
Month to date snowfall T  
Since 1 July snowfall 11.3  
Snow Depth 0.00 in    
Sea Level Pressure  
Sea Level Pressure 30.04 in    
Wind  
Wind Speed 9 mph (ESE)    
Max Wind Speed 25 mph    
Max Gust Speed 31 mph    
Visibility 8 miles    
Events Rain    
T = Trace of Precipitation, MM = Missing Value Source: NWS Daily Summary

Daily Weather History Graph

Daily Weather History Graph

Search for Another Location

Airport or City:

Trip Planner

Search our weather history database for the weather conditions in past years. The results will help you decide how hot, cold, wet, or windy it might be!

Date:

Astronomy

Apr. 27, 2013 Rise Set
Actual Time 6:23 AM CDT 7:59 PM CDT
Civil Twilight 5:55 AM CDT 8:27 PM CDT
Nautical Twilight 5:22 AM CDT 9:00 PM CDT
Astronomical Twilight 4:46 AM CDT 9:36 PM CDT
Moon 10:27 PM CDT (4/27) 7:44 AM CDT (4/27)
Length of Visible Light 14h 31m
Length of Day
13h 36m
Waning Gibbous, 95% of the Moon is Illuminated
Apr 27
Waning Gibbous
May 2
Last Quarter
May 9
New
May 17
First Quarter
May 24
Full

Hourly Weather History & Observations

Time (CDT) Temp. Dew Point Humidity Pressure Visibility Wind Dir Wind Speed Gust Speed Precip Events Conditions
12:06 AM 46.9 °F 45.0 °F 93% 30.17 in 10.0 mi SE 13.8 mph - N/A   Overcast
12:52 AM 48.0 °F 46.0 °F 93% 30.15 in 10.0 mi SE 13.8 mph 21.9 mph N/A   Overcast
1:52 AM 48.0 °F 46.0 °F 93% 30.12 in 8.0 mi SE 15.0 mph - 0.00 in Rain Light Rain
2:52 AM 48.9 °F 46.0 °F 90% 30.10 in 10.0 mi SE 12.7 mph - 0.02 in   Overcast
3:10 AM 48.9 °F 46.0 °F 90% 30.09 in 10.0 mi SE 13.8 mph 25.3 mph N/A   Overcast
3:34 AM 48.0 °F 46.0 °F 93% 30.08 in 10.0 mi SE 18.4 mph - 0.00 in Rain Light Rain
3:42 AM 48.9 °F 46.0 °F 90% 30.07 in 10.0 mi SE 20.7 mph - 0.00 in   Overcast
3:52 AM 48.9 °F 46.0 °F 90% 30.08 in 10.0 mi SE 19.6 mph - 0.00 in   Overcast
4:10 AM 48.0 °F 46.0 °F 93% 30.06 in 10.0 mi SE 21.9 mph 28.8 mph N/A   Overcast
4:52 AM 48.0 °F 46.0 °F 93% 30.04 in 10.0 mi SE 15.0 mph 24.2 mph N/A   Overcast
5:52 AM 48.9 °F 46.0 °F 90% 30.04 in 10.0 mi East 6.9 mph - N/A   Overcast
6:52 AM 48.9 °F 46.9 °F 93% 30.06 in 10.0 mi East 5.8 mph - N/A   Overcast
7:52 AM 48.9 °F 46.9 °F 93% 30.08 in 10.0 mi ESE 5.8 mph - N/A   Overcast
8:52 AM 50.0 °F 48.0 °F 93% 30.08 in 10.0 mi ESE 8.1 mph - N/A   Overcast
9:52 AM 50.0 °F 48.0 °F 93% 30.06 in 10.0 mi ESE 9.2 mph - N/A   Overcast
10:52 AM 51.1 °F 48.9 °F 92% 30.05 in 10.0 mi ESE 10.4 mph - 0.01 in Rain Light Rain
11:52 AM 51.1 °F 48.9 °F 92% 30.06 in 4.0 mi SE 6.9 mph - 0.06 in Rain Light Rain
12:40 PM 52.0 °F 50.0 °F 93% 30.03 in 2.5 mi SE 10.4 mph - 0.07 in Rain Rain
12:48 PM 51.8 °F 50.0 °F 94% 30.03 in 8.0 mi SE 9.2 mph - 0.08 in Rain Light Rain
12:52 PM 52.0 °F 50.0 °F 93% 30.04 in 10.0 mi SSE 10.4 mph - 0.08 in Rain Light Rain
1:52 PM 53.1 °F 50.0 °F 89% 30.03 in 10.0 mi South 5.8 mph - 0.01 in   Overcast
2:52 PM 54.0 °F 50.0 °F 86% 30.03 in 10.0 mi WSW 5.8 mph - N/A   Overcast
3:52 PM 54.0 °F 51.1 °F 90% 30.01 in 10.0 mi NW 4.6 mph - N/A   Overcast
4:52 PM 53.1 °F 51.1 °F 93% 30.01 in 10.0 mi NW 4.6 mph - N/A   Overcast
5:42 PM 53.1 °F 51.1 °F 93% 30.00 in 2.5 mi NW 9.2 mph - N/A   Overcast
5:52 PM 52.0 °F 51.1 °F 97% 30.00 in 3.0 mi NW 8.1 mph - 0.00 in Rain Light Rain
5:59 PM 52.0 °F 51.1 °F 97% 30.00 in 2.0 mi NW 9.2 mph - 0.00 in   Overcast
6:29 PM 52.0 °F 51.1 °F 97% 30.00 in 4.0 mi NW 8.1 mph - 0.00 in   Overcast
6:52 PM 51.1 °F 50.0 °F 96% 30.01 in 5.0 mi NW 9.2 mph - 0.00 in   Overcast
7:11 PM 51.1 °F 50.0 °F 96% 30.00 in 6.0 mi NNW 8.1 mph - N/A   Overcast
7:52 PM 51.1 °F 48.9 °F 92% 30.00 in 3.0 mi NW 6.9 mph - N/A   Overcast
8:29 PM 50.0 °F 48.9 °F 96% 30.00 in 10.0 mi NNW 8.1 mph - N/A   Overcast
8:52 PM 50.0 °F 48.9 °F 96% 30.01 in 9.0 mi NNW 8.1 mph - N/A   Overcast
9:02 PM 50.0 °F 48.9 °F 96% 30.01 in 9.0 mi NW 8.1 mph - N/A   Overcast
9:52 PM 50.0 °F 48.9 °F 96% 30.02 in 7.0 mi NW 6.9 mph - N/A   Overcast
10:06 PM 50.0 °F 48.9 °F 96% 30.02 in 7.0 mi NW 6.9 mph - N/A   Overcast
10:16 PM 50.0 °F 48.9 °F 96% 30.02 in 4.0 mi NW 5.8 mph - N/A   Overcast
10:52 PM 50.0 °F 48.9 °F 96% 30.01 in 10.0 mi NW 9.2 mph - N/A   Overcast
11:52 PM 50.0 °F 48.9 °F 96% 30.00 in 10.0 mi NW 6.9 mph - N/A   Overcast